Wind_Speed
76 72 71 69 67 64 59 59 56 53 51 49 54 50 51 48 50 52 62 65 61 59 58 63 56 39 40 48 34 35 43 46 45 44 46 44 51 58 64 69 76 86 95
69 67 68 67 69 63 64 58 56 52 54 61 60 53 53 55 57 62 55 53 52 55 59 50 37 31 43 23 37 37 44 46 43 42 41 48 53 59 66 74 82 93 88
68 58 66 63 59 66 63 62 56 53 55 54 56 61 59 57 53 48 40 47 46 49 45 29 24 33 33 29 33 37 41 40 40 40 46 50 56 62 69 78 89 89 56
72 50 68 65 61 64 63 57 57 54 53 57 52 49 53 53 47 48 48 47 44 38 28 31 30 29 24 28 36 39 36 38 38 44 47 52 58 65 73 81 83 57 45
71 48 69 76 33 46 51 51 62 53 48 47 43 46 46 41 48 39 40 43 32 26 28 26 17 18 25 28 36 35 36 35 40 44 49 56 60 67 75 83 71 43 46
58 59 34 67 38 51 55 47 53 50 43 35 30 28 33 47 50 43 38 31 32 29 30 18 14 21 24 31 32 33 32 38 41 46 50 57 61 69 79 79 47 42 39
48 36 31 30 34 33 31 36 37 38 31 33 30 34 40 36 32 39 32 40 36 32 33 15 13 23 26 27 30 29 33 39 42 47 52 57 62 70 78 65 43 45 43
46 36 37 33 32 33 38 35 20 22 31 32 36 37 34 35 33 33 35 37 38 26 7 12 22 22 24 28 27 30 34 39 44 50 55 60 65 72 76 48 40 42 42
50 44 49 33 38 32 38 26 23 22 26 30 32 29 24 23 24 30 36 34 12 9 10 20 21 22 25 25 28 32 35 41 46 51 55 59 66 73 69 38 43 40 39
51 48 45 49 42 24 24 17 18 22 23 23 29 18 17 24 24 34 35 27 10 7 18 19 20 23 22 23 28 32 38 43 48 55 58 61 65 70 56 36 41 40 40
42 30 38 25 27 19 20 20 22 22 24 20 22 21 25 29 30 26 28 15 8 14 16 18 21 21 21 25 30 34 39 44 49 55 56 64 64 61 41 35 41 38 38
28 30 29 20 20 20 20 22 27 21 22 17 18 25 30 27 28 16 8 8 12 15 16 19 20 18 21 29 33 37 43 47 51 55 57 63 60 50 32 33 38 37 39
27 22 21 15 21 22 23 27 29 26 25 26 27 28 29 22 15 10 6 11 13 15 16 17 18 20 25 31 34 39 44 49 53 56 57 58 53 37 27 31 38 39 40
19 22 25 20 27 29 31 25 24 26 28 29 28 27 20 18 8 6 10 11 14 15 16 17 18 22 28 33 36 41 46 49 52 56 61 56 46 30 23 26 32 31 37
23 24 23 23 26 24 23 23 28 28 19 24 27 22 16 8 8 10 11 11 13 15 17 17 20 25 30 33 37 42 47 51 53 58 57 50 40 27 20 24 30 30 33
26 27 29 27 25 24 21 27 40 34 27 23 22 15 11 11 10 10 10 11 12 15 16 18 22 27 31 34 39 44 48 50 54 59 51 45 35 24 21 22 29 29 30
20 25 26 30 33 36 38 40 33 28 29 25 17 15 13 10 10 9 10 11 13 14 16 20 24 28 31 37 41 46 49 51 57 53 45 38 30 22 19 20 28 28 29
34 32 29 27 34 37 36 34 33 29 23 19 19 15 12 10 9 8 10 10 12 15 19 22 26 29 34 39 43 46 49 53 52 45 42 33 25 22 18 18 25 26 25
32 30 35 33 30 25 18 24 25 20 18 18 15 13 12 8 8 9 10 10 13 17 20 23 26 32 38 41 44 46 50 53 47 40 35 27 21 21 15 17 22 23 23
30 30 25 25 20 18 24 21 18 18 18 16 14 11 8 9 9 9 10 12 15 17 20 23 28 34 39 41 43 47 52 50 44 36 28 23 18 19 12 14 19 20 20
25 20 20 25 25 24 19 18 16 16 16 13 10 9 10 10 10 10 12 14 15 19 22 25 30 36 40 42 44 48 50 48 41 33 23 20 17 18 10 11 16 17 19
21 26 30 22 18 16 16 14 14 14 13 11 11 11 10 9 10 12 12 14 18 20 22 26 33 39 42 43 45 46 47 43 36 29 22 18 17 17 8 7 13 16 17
24 25 22 18 15 13 15 15 14 13 13 12 11 9 8 10 12 13 14 16 18 21 24 31 37 40 40 42 43 45 42 36 31 26 21 16 16 16 8 5 9 13 15
20 15 14 20 16 17 17 14 13 13 13 11 9 9 10 11 12 14 15 16 19 23 29 35 38 38 39 40 41 41 36 33 29 25 20 15 15 13 8 4 5 10 13
17 19 16 17 20 18 14 15 14 13 12 11 11 10 11 11 13 15 15 17 21 27 33 35 35 36 37 37 37 35 32 31 27 22 18 14 12 10 8 3 1 6 11
21 23 25 24 22 19 16 15 16 15 14 13 12 11 11 12 13 14 16 19 26 32 34 33 33 34 34 33 32 30 30 28 24 19 16 13 10 7 8 4 4 3 7
Wind_Direction
201 206 207 210 215 219 224 229 234 242 246 241 245 250 256 264 269 271 281 274 271 272 279 277 279 286 299 295 284 307 304 305 310 315 319 319 317 320 319 323 323 318 323
200 203 206 209 215 217 225 226 235 242 243 252 251 256 260 262 268 273 274 272 271 276 279 268 281 292 299 309 304 307 308 306 313 317 320 320 320 321 322 327 323 324 328
190 201 204 207 218 218 223 224 230 237 244 246 251 256 265 262 263 267 274 281 274 289 283 261 286 295 294 304 307 305 304 309 315 319 322 321 324 325 329 326 326 329 332
193 193 205 211 212 218 215 221 227 235 239 248 252 258 269 272 258 270 270 277 285 274 256 274 286 297 307 308 307 304 309 314 317 322 326 326 329 329 329 328 330 331 336
194 199 204 216 190 206 223 225 229 237 246 251 260 263 257 264 262 271 271 278 256 260 282 285 305 303 307 301 308 309 312 316 321 326 328 329 329 331 330 330 330 333 334
200 199 211 213 233 220 219 224 235 235 243 248 256 258 266 265 263 268 270 258 263 275 292 297 302 301 301 309 305 310 314 320 324 328 330 329 330 331 333 333 333 333 331
205 213 209 227 216 215 228 223 225 228 244 257 260 275 284 298 269 267 259 273 276 281 292 309 307 305 306 305 310 312 320 321 328 330 331 334 333 334 333 333 333 336 335
202 209 213 210 208 218 225 217 220 233 249 265 261 265 280 280 276 273 275 272 281 286 292 307 306 305 306 309 309 316 322 326 327 332 335 336 336 334 335 333 335 335 338
206 208 214 214 204 196 207 202 218 248 263 274 278 273 272 272 275 274 283 275 273 245 304 305 303 304 308 309 313 319 326 328 332 335 338 338 336 336 332 331 335 336 341
201 210 211 215 208 179 195 215 233 253 267 270 260 263 286 315 285 277 277 273 237 298 299 296 300 304 307 309 316 321 330 332 334 339 339 338 336 335 331 333 337 341 341
182 161 202 205 208 196 215 229 231 248 256 269 267 253 268 290 292 280 273 253 253 285 292 297 301 307 309 312 318 329 329 331 334 338 339 340 334 330 331 336 340 342 347
189 186 203 218 225 226 227 238 233 250 251 255 274 267 282 281 278 255 196 256 276 288 290 298 303 306 312 316 325 328 332 334 336 337 339 339 332 331 331 338 340 344 348
175 184 203 232 223 227 232 231 241 235 233 235 256 272 279 270 191 168 231 267 275 283 297 302 301 308 315 322 324 330 333 336 340 339 338 338 332 333 334 336 341 345 348
222 226 234 224 225 237 233 237 230 229 242 246 261 269 232 167 159 226 254 266 282 297 301 297 299 309 317 325 326 329 331 339 340 340 341 337 336 338 336 334 343 344 346
223 224 221 221 223 222 226 239 240 239 227 255 253 199 156 165 219 241 258 277 291 298 295 294 306 315 324 325 329 331 337 343 341 342 342 337 339 340 334 334 345 344 348
213 210 214 215 215 212 216 239 235 221 229 216 173 154 180 201 225 247 267 281 288 288 298 307 314 320 325 328 329 335 341 341 342 345 342 340 342 340 334 337 347 349 352
220 230 212 221 230 205 208 211 194 197 181 160 164 188 191 205 233 255 277 285 293 301 310 312 318 325 327 330 336 337 340 341 345 347 345 345 346 343 337 343 350 351 354
214 202 192 181 172 180 185 183 173 166 158 174 184 185 195 216 242 267 274 288 301 313 312 319 323 329 332 338 338 338 342 345 349 348 345 345 349 345 340 349 352 353 358
170 166 170 169 171 162 170 171 160 157 173 182 183 193 209 228 254 265 285 301 315 318 321 323 331 334 336 337 338 342 343 348 349 344 341 346 344 345 342 352 356 357 4
163 161 163 168 175 184 174 162 159 169 178 187 194 207 224 243 261 276 293 313 317 320 326 334 335 335 337 338 343 344 346 348 345 339 341 341 338 345 342 352 359 2 13
157 178 184 169 162 162 158 167 169 180 189 194 203 223 237 253 271 294 310 318 319 330 337 333 337 336 339 342 343 345 346 346 343 339 340 338 338 345 339 346 1 6 19
165 177 158 159 165 164 174 178 189 195 199 209 220 229 249 276 294 304 315 321 330 333 332 334 336 340 343 343 344 344 346 343 341 341 341 338 337 341 329 344 7 10 22
149 153 145 158 179 193 193 196 202 207 213 220 224 241 271 290 300 310 316 326 328 331 333 336 338 342 342 342 342 345 344 342 340 338 337 331 336 337 326 335 10 16 25
174 201 230 189 208 208 217 217 223 217 214 217 234 255 273 294 306 309 317 322 323 329 338 339 340 342 341 341 344 345 344 343 338 336 334 328 330 332 324 298 355 20 32
196 190 199 219 228 221 226 234 216 213 217 228 241 258 283 295 300 311 315 319 327 335 338 340 341 340 340 343 345 345 346 344 339 335 335 331 323 324 331 268 254 28 35
207 225 247 219 223 225 236 233 222 221 226 236 249 265 281 295 306 307 310 325 332 333 335 338 339 339 341 346 347 348 348 344 343 339 338 334 328 332 345 314 180 83 45
Height
5676 5691 5707 5722 5731 5740 5748 5753 5760 5767 5771 5773 5777 5782 5784 5787 5786 5785 5785 5783 5781 5780 5781 5779 5778 5774 5771 5767 5763 5762 5757 5751 5742 5734 5727 5720 5711 5700 5690 5678 5663 5647 5625
5672 5685 5701 5714 5721 5732 5739 5748 5756 5762 5767 5770 5774 5776 5777 5778 5778 5777 5773 5772 5773 5772 5771 5770 5768 5764 5765 5761 5757 5754 5751 5743 5737 5730 5721 5714 5705 5694 5680 5665 5651 5631 5612
5673 5680 5696 5706 5717 5726 5731 5741 5748 5757 5758 5762 5766 5769 5769 5768 5768 5767 5765 5765 5765 5763 5765 5761 5759 5757 5756 5755 5752 5749 5743 5737 5729 5722 5715 5707 5696 5684 5671 5654 5635 5618 5604
5672 5670 5692 5702 5707 5713 5723 5735 5742 5750 5753 5756 5758 5760 5760 5758 5758 5759 5759 5758 5759 5758 5756 5754 5752 5751 5751 5749 5747 5742 5737 5730 5724 5717 5709 5700 5688 5675 5659 5645 5625 5608 5600
5669 5667 5685 5694 5700 5705 5716 5727 5738 5744 5749 5749 5751 5753 5752 5749 5751 5751 5752 5751 5752 5751 5750 5747 5745 5744 5744 5742 5740 5737 5731 5725 5719 5711 5703 5691 5680 5666 5651 5634 5617 5606 5593
5666 5670 5673 5690 5694 5707 5715 5725 5728 5737 5741 5743 5745 5745 5745 5744 5745 5746 5746 5747 5747 5745 5742 5740 5738 5740 5739 5736 5734 5731 5727 5722 5714 5705 5695 5685 5671 5656 5636 5622 5609 5601 5592
5666 5669 5679 5683 5693 5699 5711 5718 5722 5727 5733 5737 5739 5740 5740 5738 5741 5743 5742 5742 5740 5739 5736 5733 5735 5735 5734 5732 5731 5727 5721 5715 5707 5700 5691 5679 5664 5648 5634 5617 5604 5596 5585
5664 5672 5678 5685 5691 5700 5707 5710 5715 5723 5729 5731 5734 5736 5736 5737 5737 5738 5737 5736 5735 5733 5731 5732 5732 5731 5730 5729 5727 5722 5716 5709 5702 5693 5683 5669 5654 5640 5623 5610 5603 5593 5580
5663 5671 5679 5686 5691 5694 5700 5707 5716 5721 5725 5725 5728 5733 5732 5732 5731 5733 5732 5731 5730 5730 5729 5728 5729 5728 5726 5725 5722 5718 5711 5704 5696 5688 5675 5663 5649 5634 5620 5609 5600 5590 5580
5660 5668 5676 5683 5685 5687 5697 5707 5712 5717 5720 5722 5725 5726 5726 5726 5726 5726 5727 5726 5726 5726 5725 5726 5726 5724 5721 5720 5717 5712 5705 5697 5689 5677 5665 5653 5641 5627 5613 5604 5597 5587 5576
5654 5652 5670 5676 5682 5685 5696 5703 5709 5713 5714 5716 5718 5721 5722 5722 5720 5721 5723 5723 5723 5723 5722 5723 5722 5720 5719 5718 5713 5705 5699 5691 5681 5672 5659 5647 5633 5617 5608 5600 5592 5584 5577
5652 5659 5669 5675 5681 5688 5694 5699 5704 5707 5711 5711 5712 5716 5716 5715 5715 5717 5719 5720 5719 5720 5721 5720 5718 5716 5715 5714 5707 5700 5693 5685 5675 5666 5654 5642 5627 5611 5605 5596 5591 5581 5575
5654 5662 5670 5676 5679 5685 5690 5695 5698 5703 5705 5708 5710 5711 5710 5709 5712 5715 5717 5716 5718 5718 5717 5716 5716 5715 5711 5705 5701 5695 5688 5679 5669 5661 5649 5635 5619 5607 5600 5595 5588 5576 5572
5653 5659 5665 5670 5676 5680 5685 5689 5692 5696 5700 5702 5705 5705 5707 5709 5711 5713 5714 5716 5717 5716 5715 5713 5712 5710 5705 5702 5697 5690 5683 5671 5663 5654 5640 5625 5610 5604 5598 5595 5589 5583 5574
5649 5655 5661 5667 5673 5677 5681 5683 5686 5693 5696 5699 5701 5703 5705 5707 5710 5712 5714 5714 5713 5712 5712 5711 5709 5706 5702 5698 5691 5685 5675 5664 5658 5647 5630 5613 5605 5601 5597 5594 5587 5582 5575
5645 5652 5658 5662 5666 5672 5675 5679 5682 5685 5690 5694 5699 5700 5703 5706 5709 5711 5711 5711 5710 5710 5709 5707 5705 5702 5698 5691 5686 5678 5668 5659 5651 5637 5620 5608 5603 5600 5596 5592 5587 5582 5575
5645 5649 5654 5659 5663 5665 5671 5675 5677 5683 5689 5692 5696 5700 5702 5705 5708 5709 5710 5709 5708 5707 5705 5703 5701 5697 5691 5687 5679 5673 5664 5654 5642 5627 5614 5606 5602 5599 5596 5592 5588 5582 5575
5644 5648 5652 5659 5662 5663 5668 5673 5676 5682 5685 5691 5696 5698 5702 5704 5707 5707 5708 5706 5706 5703 5702 5699 5697 5692 5688 5680 5673 5667 5656 5646 5633 5620 5613 5607 5603 5600 5597 5593 5589 5584 5577
5645 5649 5654 5657 5663 5668 5670 5674 5678 5681 5688 5693 5696 5699 5702 5703 5704 5706 5705 5702 5700 5700 5698 5696 5691 5687 5682 5675 5669 5660 5650 5638 5627 5620 5613 5607 5604 5600 5597 5594 5590 5585 5579
5647 5653 5657 5661 5665 5668 5672 5677 5680 5684 5689 5693 5696 5698 5700 5702 5702 5702 5700 5698 5697 5696 5693 5688 5686 5682 5676 5670 5661 5653 5643 5633 5625 5618 5612 5609 5605 5600 5598 5595 5592 5587 5581
5651 5654 5658 5662 5665 5670 5673 5677 5680 5684 5688 5691 5693 5696 5699 5699 5699 5697 5695 5695 5694 5691 5687 5686 5682 5677 5672 5663 5654 5646 5638 5630 5623 5616 5612 5609 5604 5601 5598 5596 5593 5589 5583
5651 5654 5658 5663 5667 5670 5674 5676 5680 5683 5686 5690 5693 5695 5695 5696 5694 5695 5694 5692 5689 5687 5685 5682 5678 5671 5664 5657 5649 5642 5633 5626 5620 5615 5611 5608 5604 5601 5598 5596 5594 5591 5586
5652 5656 5659 5663 5667 5670 5674 5677 5680 5683 5685 5688 5690 5691 5691 5691 5692 5692 5690 5688 5687 5685 5682 5677 5671 5665 5659 5653 5646 5637 5630 5624 5618 5613 5610 5607 5604 5601 5598 5596 5595 5592 5588
5653 5656 5660 5664 5668 5671 5674 5677 5678 5681 5683 5685 5687 5689 5689 5689 5689 5689 5687 5686 5684 5681 5676 5671 5666 5660 5655 5648 5641 5634 5628 5622 5616 5612 5609 5606 5604 5601 5598 5596 5595 5594 5591
5653 5656 5660 5663 5667 5669 5672 5674 5676 5678 5681 5683 5685 5685 5686 5686 5686 5685 5684 5682 5680 5677 5672 5666 5662 5657 5650 5643 5637 5630 5625 5620 5615 5611 5608 5605 5604 5601 5597 5596 5596 5595 5593
5651 5654 5657 5658 5663 5667 5669 5671 5673 5675 5678 5680 5682 5683 5683 5682 5682 5682 5681 5678 5676 5672 5667 5663 5658 5652 5646 5639 5633 5628 5623 5618 5614 5610 5607 5605 5603 5600 5598 5596 5596 5595 5594